DW6366 Weather Reports


Display with metric or nautical units.
time (UTC)temp
F
wind
direction
speed
MPH
gust
MPH
rain 1hr
in
rain 24hr
in
rain mn
in
humidity
%
barometer
mb
20260510064322 54 40 2.0 5.0 0.00 0.00 0.00 80 1016.1
20260510063326 53 59 2.0 9.0 0.00 0.00 0.00 82 1016.1
20260510062320 53 28 1.0 7.0 0.00 0.00 0.00 82 1016.1
20260510061354 52 21 2.0 8.0 0.00 0.00 0.00 83 1016.2
20260510060322 51 7 1.0 5.0 0.00 0.00 0.00 83 1016.2
20260510055333 51 2 2.0 4.0 0.00 0.00 0.00 83 1016.1
20260510054321 51 350 1.0 5.0 0.00 0.00 0.00 84 1016.1
20260510053322 51 32 2.0 6.0 0.00 0.00 0.00 84 1016.1
20260510052343 51 8 1.0 5.0 0.00 0.00 0.00 85 1016.1
20260510051345 50 357 2.0 7.0 0.00 0.00 0.00 85 1016.1
20260510050347 50 328 1.0 4.0 0.00 0.00 0.00 86 1016.1
20260510045352 50 2 2.0 4.0 0.00 0.00 0.00 86 1016.1
20260510044342 50 350 1.0 4.0 0.00 0.00 0.00 86 1016.1
20260510043323 50 21 2.0 6.0 0.00 0.00 0.00 86 1016.2
20260510042341 50 24 1.0 6.0 0.00 0.00 0.00 86 1016.1
20260510041321 50 15 2.0 6.0 0.00 0.00 0.00 86 1016.2
20260510040325 50 1 2.0 5.0 0.00 0.00 0.00 86 1016.0
20260510035335 50 13 1.0 4.0 0.00 0.00 0.00 86 1016.0
20260510034329 51 7 2.0 7.0 0.00 0.00 0.00 86 1015.9
20260510033321 51 93 1.0 4.0 0.00 0.00 0.00 85 1016.0
20260510032327 51 359 1.0 6.0 0.00 0.00 0.00 85 1016.0
20260510031323 51 357 2.0 4.0 0.00 0.00 0.00 85 1016.0
20260510030333 51 331 1.0 7.0 0.00 0.00 0.00 84 1016.1
20260510025353 51 9 1.0 5.0 0.00 0.00 0.00 84 1016.1
20260510024338 51 336 1.0 6.0 0.00 0.00 0.00 84 1016.2
20260510023337 51 15 1.0 5.0 0.00 0.00 0.00 84 1016.3
20260510022342 51 357 1.0 5.0 0.00 0.00 0.00 83 1016.3
20260510021329 52 356 1.0 9.0 0.00 0.00 0.00 83 1016.4
20260510020415 52 41 1.0 6.0 0.00 0.00 0.00 83 1016.5
20260510015336 52 25 1.0 6.0 0.00 0.00 0.00 83 1016.4
20260510014332 52 360 1.0 4.0 0.00 0.00 0.00 83 1016.4
20260510013330 52 31 1.0 3.0 0.00 0.00 0.00 83 1016.4
20260510012323 52 9 1.0 4.0 0.00 0.00 0.00 83 1016.3
20260510011339 52 11 1.0 2.0 0.00 0.00 0.00 83 1016.4
20260510010355 52 3 1.0 2.0 0.00 0.00 0.00 83 1016.4
20260510005342 53 23 1.0 3.0 0.00 0.00 0.00 82 1016.4
20260510004347 53 15 1.0 3.0 0.00 0.00 0.00 82 1016.6
20260510003321 53 338 1.0 3.0 0.00 0.00 0.00 82 1016.7
20260510002319 53 3 1.0 3.0 0.00 0.00 0.00 82 1016.7
20260510001327 53 6 0.0 2.0 0.00 0.00 0.00 82 1016.8
20260510000411 53 349 1.0 6.0 0.00 0.00 0.00 82 1016.9
20260509235359 54 17 1.0 3.0 0.00 0.00 0.00 81 1016.8
20260509234345 54 350 1.0 4.0 0.00 0.00 0.00 81 1016.7
20260509233355 54 325 1.0 4.0 0.00 0.00 0.00 80 1016.8
20260509232321 54 23 1.0 6.0 0.00 0.00 0.00 80 1016.8
20260509231406 54 18 1.0 5.0 0.00 0.00 0.00 80 1016.8
20260509230338 54 351 2.0 4.0 0.00 0.00 0.00 79 1016.9
20260509225348 54 18 2.0 5.0 0.00 0.00 0.00 79 1016.9
20260509224344 54 5 1.0 5.0 0.00 0.00 0.00 79 1016.9
20260509223336 55 340 1.0 5.0 0.00 0.00 0.00 79 1017.0
20260509222323 54 359 1.0 5.0 0.00 0.00 0.00 78 1017.0
20260509221330 55 352 1.0 2.0 0.00 0.00 0.00 77 1016.9
20260509220413 55 17 0.0 2.0 0.00 0.00 0.00 76 1017.0
20260509215355 55 17 0.0 2.0 0.00 0.00 0.00 75 1017.0
20260509214321 55 13 0.0 2.0 0.00 0.00 0.00 75 1016.9
20260509213345 56 14 1.0 3.0 0.00 0.00 0.00 74 1017.0
20260509212330 56 348 1.0 3.0 0.00 0.00 0.00 73 1016.9
20260509211349 56 357 1.0 5.0 0.00 0.00 0.00 73 1017.1
20260509210355 56 1 1.0 3.0 0.00 0.00 0.00 72 1017.0
20260509205405 57 14 0.0 3.0 0.00 0.00 0.00 71 1017.1
20260509204325 57 28 0.0 5.0 0.00 0.00 0.00 70 1017.0
20260509203320 57 5 0.0 4.0 0.00 0.00 0.00 70 1017.0
20260509202337 57 8 1.0 5.0 0.00 0.00 0.00 69 1016.8
20260509201343 58 13 1.0 3.0 0.00 0.00 0.00 68 1016.9
20260509200321 58 358 1.0 4.0 0.00 0.00 0.00 67 1017.0
20260509195408 59 7 0.0 2.0 0.00 0.00 0.00 67 1017.0
20260509194337 59 279 1.0 5.0 0.00 0.00 0.00 66 1016.9
20260509193342 60 342 1.0 5.0 0.00 0.00 0.00 65 1016.8
20260509192321 60 16 0.0 3.0 0.00 0.00 0.00 64 1016.9
20260509191352 61 32 0.0 2.0 0.00 0.00 0.00 63 1016.8
20260509190334 62 27 0.0 2.0 0.00 0.00 0.00 61 1016.7
20260509185329 62 19 0.0 2.0 0.00 0.00 0.00 60 1016.6
20260509184357 63 13 0.0 3.0 0.00 0.00 0.00 58 1016.6
20260509183325 64 30 0.0 2.0 0.00 0.00 0.00 56 1016.5
20260509182326 64 19 1.0 2.0 0.00 0.00 0.00 55 1016.4
20260509181337 64 15 0.0 4.0 0.00 0.00 0.00 55 1016.3
20260509180327 65 73 1.0 5.0 0.00 0.00 0.00 54 1016.3
20260509175341 65 63 0.0 6.0 0.00 0.00 0.00 54 1016.2
20260509174321 65 7 2.0 5.0 0.00 0.00 0.00 54 1016.3
20260509173333 65 358 1.0 5.0 0.00 0.00 0.00 54 1016.4
20260509172339 65 5 1.0 8.0 0.00 0.00 0.00 54 1016.5
20260509171329 66 47 2.0 8.0 0.00 0.00 0.00 52 1016.4
20260509170347 66 77 2.0 5.0 0.00 0.00 0.00 51 1016.4
20260509165323 66 19 1.0 4.0 0.00 0.00 0.00 50 1016.5
20260509164334 66 23 1.0 3.0 0.00 0.00 0.00 51 1016.5
20260509163347 67 297 2.0 5.0 0.00 0.00 0.00 50 1016.5
20260509162323 67 9 0.0 3.0 0.00 0.00 0.00 50 1016.4
20260509161350 67 58 0.0 9.0 0.00 0.00 0.00 49 1016.5
20260509160342 69 44 4.0 8.0 0.00 0.00 0.00 47 1016.5
20260509155327 70 110 2.0 5.0 0.00 0.00 0.00 47 1016.3
20260509154320 69 330 1.0 4.0 0.00 0.00 0.00 47 1016.4
20260509153326 70 213 2.0 5.0 0.00 0.00 0.00 45 1016.3
20260509152338 72 329 1.0 6.0 0.00 0.00 0.00 44 1016.3
20260509151323 70 5 2.0 7.0 0.00 0.00 0.00 45 1016.4
20260509150339 71 10 2.0 6.0 0.00 0.00 0.00 44 1016.6
20260509145336 72 21 1.0 5.0 0.00 0.00 0.00 45 1016.6
20260509144344 73 15 2.0 5.0 0.00 0.00 0.00 44 1016.6
20260509143320 73 85 3.0 7.0 0.00 0.00 0.00 44 1016.7
20260509142332 71 38 1.0 4.0 0.00 0.00 0.00 46 1016.7
20260509141328 72 19 2.0 8.0 0.00 0.00 0.00 45 1016.8
20260509140320 73 6 2.0 7.0 0.00 0.00 0.00 46 1017.0
20260509135327 71 115 5.0 10.0 0.00 0.00 0.00 48 1017.1
20260509134339 71 73 5.0 13.0 0.00 0.00 0.00 48 1017.0
20260509133327 72 342 1.0 4.0 0.00 0.00 0.00 46 1017.2
20260509132359 71 121 1.0 5.0 0.00 0.00 0.00 46 1017.3
20260509131327 70 208 1.0 4.0 0.00 0.00 0.00 48 1017.4
20260509130354 68 351 1.0 6.0 0.00 0.00 0.00 47 1017.6
20260509125321 68 318 2.0 4.0 0.00 0.00 0.00 48 1017.7
20260509124337 70 342 1.0 7.0 0.00 0.00 0.00 50 1017.8
20260509123342 69 33 1.0 12.0 0.00 0.00 0.00 50 1017.8
20260509122333 71 84 3.0 12.0 0.00 0.00 0.00 50 1017.9
20260509121356 71 180 1.0 12.0 0.00 0.00 0.00 48 1017.9
20260509120342 71 208 4.0 10.0 0.00 0.00 0.00 47 1017.9
20260509115346 69 208 6.0 13.0 0.00 0.00 0.00 49 1018.1
20260509114359 69 116 3.0 11.0 0.00 0.00 0.00 50 1018.3
20260509113347 69 208 5.0 10.0 0.00 0.00 0.00 51 1018.4
20260509112326 69 77 1.0 6.0 0.00 0.00 0.00 52 1018.5
20260509111324 69 4 2.0 8.0 0.00 0.00 0.00 54 1018.5
20260509110322 69 208 5.0 10.0 0.00 0.00 0.00 54 1018.7
20260509105333 68 76 4.0 9.0 0.00 0.00 0.00 54 1018.7
20260509104322 69 86 3.0 10.0 0.00 0.00 0.00 56 1018.8
20260509103334 68 62 2.0 10.0 0.00 0.00 0.00 58 1018.8
20260509102345 68 208 2.0 9.0 0.00 0.00 0.00 57 1018.9
20260509101348 68 94 6.0 13.0 0.00 0.00 0.00 57 1019.0
20260509100338 68 303 1.0 9.0 0.00 0.00 0.00 58 1019.0
20260509095323 67 73 5.0 12.0 0.00 0.00 0.00 59 1019.1
20260509094323 67 342 1.0 9.0 0.00 0.00 0.00 61 1019.0
20260509093345 67 75 3.0 10.0 0.00 0.00 0.00 61 1019.2
20260509092325 66 21 1.0 11.0 0.00 0.00 0.00 62 1019.1
20260509091338 66 21 1.0 6.0 0.00 0.00 0.00 62 1019.1
20260509090341 65 30 1.0 8.0 0.00 0.00 0.00 64 1019.2
20260509085339 64 324 3.0 12.0 0.00 0.00 0.00 64 1019.2
20260509084321 63 46 5.0 10.0 0.00 0.00 0.00 66 1019.1
20260509083331 63 65 2.0 11.0 0.00 0.00 0.00 68 1019.1
20260509082321 62 208 4.0 10.0 0.00 0.00 0.00 68 1019.1
20260509081337 61 7 3.0 12.0 0.00 0.00 0.00 70 1019.1
20260509080353 60 84 5.0 10.0 0.00 0.00 0.00 71 1019.1
20260509075323 59 102 9.0 13.0 0.00 0.00 0.00 73 1019.1
20260509074325 59 134 7.0 11.0 0.00 0.00 0.00 75 1019.1
20260509073352 58 84 6.0 12.0 0.00 0.00 0.00 78 1019.0
20260509072331 57 78 5.0 10.0 0.00 0.00 0.00 81 1019.0
20260509071410 56 97 5.0 10.0 0.00 0.00 0.00 84 1019.1
20260509070328 54 73 1.0 3.0 0.00 0.00 0.00 86 1019.2
20260509065351 53 53 2.0 10.0 0.00 0.00 0.00 87 1019.3